Location: Mauries
(43.6188°N, 0.3322°W)
Time: 20:17:51
(UTC+00:00)

Cosmos 909 Rocket - Pass Details

Date: 14 January 2026
Orbit: 992 x 2087 km, 65.9° (Epoch: 11 February)

Event Time Altitude Azimuth Distance (km) Brightness Sun altitude
Exits shadow 04:58:13 63° 303° (WNW) 1,183 4.1 -27.3°
Maximum altitude 04:59:19 77° 240° (WSW) 1,113 4.1 -27.1°
Drops below altitude 10° 05:06:43 10° 156° (SSE) 3,209 7.0 -25.8°
Sets 05:09:45 0° 155° (SSE) 4,319 7.8 -25.3°
